Disclaimer

Please do not use the information listed here in-flight or in-navigation, as they are not provided to us by the airports but are provided by volunteers, so they might be outdated.

Search


Regions


Airport information page

Radio informations:
Tower (TWR) - 120.65 MHz
Approach (APP) - 120.65 MHz

Airport informations:
Latitude: 37° 55' 14.55" N
Longitude: 021° 17' 33.30" E
Elevation: 55 feet - 17 meters
Operating hours: From sunrise to sunset (SR-SS)
Operating agency: Military
Timezone: UTC+2(+3DT)
Fuel: Jet A1, without icing nhibitor.

Runway information:
16/34 - 10299 x 148 feet< - >3139 x 45 meters

Recent METARs:
LGAD 221920Z 19004KT 9999 FEW018TCU BKN025 13/10 Q1009
LGAD 221950Z 20004KT 9999 FEW020 12/10 Q1008
LGAD 222020Z 20004KT 9999 FEW020 12/10 Q1008

Airport on the map: